| time (UTC) | temp F | wind direction | speed knots | gust knots | rain 1hr in | rain 24hr in | rain mn in | humidity % | barometer mb |
| 20260906113256 | 71 | 233 | 0.9 | 0.0 | 0.00 | 1.11 | 0.00 | 100 | |
| 20260906112756 | 71 | 222 | 2.6 | 0.0 | 0.00 | 1.11 | 0.00 | 100 | |
| 20260906112727 | 71 | 225 | 2.6 | 0.0 | 0.00 | 1.11 | 0.00 | 100 | |
| 20260906112256 | 71 | 280 | 1.7 | 0.0 | 0.00 | 1.11 | 0.00 | 100 | |
| 20260906111806 | 71 | 244 | 2.6 | 0.0 | 0.00 | 1.11 | 0.00 | 100 | |
| 20260906111756 | 71 | 245 | 2.6 | 0.0 | 0.00 | 1.11 | 0.00 | 100 | |
| 20260906111729 | 71 | 244 | 2.6 | 0.0 | 0.00 | 1.11 | 0.00 | 100 | |
| 20260906111256 | 71 | 219 | 0.9 | 0.0 | 0.00 | 1.11 | 0.00 | 100 | |
| 20260906110756 | 71 | 215 | 0.9 | 0.0 | 0.00 | 1.11 | 0.00 | 100 | |
| 20260906110727 | 71 | 214 | 0.9 | 0.0 | 0.00 | 1.11 | 0.00 | 100 | |
| 20260906110256 | 71 | 219 | 1.7 | 0.0 | 0.00 | 1.11 | 0.00 | 100 | |
| 20260906105756 | 71 | 223 | 1.7 | 0.0 | 0.00 | 1.11 | 0.00 | 100 | |
| 20260906105727 | 71 | 223 | 0.9 | 0.0 | 0.00 | 1.11 | 0.00 | 100 | |
| 20260906105256 | 71 | 236 | 1.7 | 0.0 | 0.00 | 1.11 | 0.00 | 100 | |
| 20260906104756 | 71 | 241 | 1.7 | 0.0 | 0.00 | 1.11 | 0.00 | 100 | |
| 20260906104727 | 71 | 250 | 1.7 | 0.0 | 0.00 | 1.11 | 0.00 | 100 | |
| 20260906104256 | 71 | 229 | 1.7 | 0.0 | 0.00 | 1.11 | 0.00 | 100 | |
| 20260906103756 | 71 | 213 | 0.9 | 0.0 | 0.00 | 1.11 | 0.00 | 100 | |
| 20260906103727 | 71 | 207 | 0.9 | 0.0 | 0.00 | 1.11 | 0.00 | 100 | |
| 20260906103256 | 71 | 194 | 1.7 | 0.0 | 0.00 | 1.11 | 0.00 | 100 | |
| 20260906102727 | 71 | 198 | 0.9 | 0.0 | 0.00 | 1.11 | 0.00 | 100 | |
| 20260906101256 | 71 | 211 | 0.9 | 0.0 | 0.00 | 1.11 | 0.00 | 100 | |
| 20260906100756 | 71 | 215 | 1.7 | 0.0 | 0.00 | 1.11 | 0.00 | 100 | |
| 20260906100727 | 71 | 226 | 1.7 | 0.0 | 0.00 | 1.11 | 0.00 | 100 | |
| 20260906100256 | 71 | 217 | 0.9 | 0.0 | 0.00 | 1.11 | 0.00 | 100 | |
| 20260906095756 | 72 | 237 | 1.7 | 0.0 | 0.00 | 1.11 | 0.00 | 100 | |
| 20260906095728 | 72 | 225 | 1.7 | 0.0 | 0.00 | 1.11 | 0.00 | 100 | |
| 20260906095255 | 71 | 346 | 0.9 | 0.0 | 0.00 | 1.11 | 0.00 | 100 | |
| 20260906094756 | 71 | 346 | 1.7 | 0.0 | 0.00 | 1.11 | 0.00 | 100 | |
| 20260906094727 | 71 | 322 | 0.9 | 0.0 | 0.00 | 1.11 | 0.00 | 100 | |
| 20260906094255 | 71 | 341 | 2.6 | 0.0 | 0.00 | 1.11 | 0.00 | 100 | |
| 20260906093756 | 71 | 261 | 1.7 | 0.0 | 0.00 | 1.11 | 0.00 | 100 | |
| 20260906093727 | 72 | 291 | 0.9 | 0.0 | 0.00 | 1.11 | 0.00 | 100 | |
| 20260906093255 | 72 | 257 | 0.9 | 0.0 | 0.00 | 1.11 | 0.00 | 100 | |
| 20260906092755 | 72 | 288 | 1.7 | 0.0 | 0.00 | 1.11 | 0.00 | 100 | |
| 20260906092730 | 72 | 257 | 1.7 | 0.0 | 0.00 | 1.11 | 0.00 | 100 | |
| 20260906092255 | 72 | 252 | 1.7 | 0.0 | 0.00 | 1.11 | 0.00 | 100 | |
| 20260906091727 | 72 | 248 | 0.9 | 0.0 | 0.00 | 1.11 | 0.00 | 100 | |
| 20260906091255 | 72 | 226 | 0.9 | 0.0 | 0.00 | 1.11 | 0.00 | 100 | |
| 20260906090755 | 72 | 268 | 2.6 | 0.0 | 0.00 | 1.11 | 0.00 | 100 | |
| 20260906090727 | 72 | 238 | 0.9 | 0.0 | 0.00 | 1.11 | 0.00 | 100 | |
| 20260906090255 | 72 | 302 | 0.9 | 0.0 | 0.00 | 1.11 | 0.00 | 100 | |
| 20260906085755 | 72 | 232 | 1.7 | 0.0 | 0.00 | 1.11 | 0.00 | 100 | |
| 20260906085727 | 72 | 219 | 1.7 | 0.0 | 0.00 | 1.11 | 0.00 | 100 | |
| 20260906085255 | 72 | 183 | 1.7 | 0.0 | 0.00 | 1.11 | 0.00 | 100 | |
| 20260906084755 | 72 | 218 | 0.9 | 0.0 | 0.00 | 1.11 | 0.00 | 100 | |
| 20260906084255 | 72 | 127 | 1.7 | 0.0 | 0.00 | 1.11 | 0.00 | 100 | |
| 20260906082755 | 72 | 81 | 0.9 | 0.0 | 0.00 | 1.11 | 0.00 | 100 | |
| 20260906081255 | 72 | 92 | 1.7 | 0.0 | 0.00 | 1.11 | 0.00 | 100 | |
| 20260906080727 | 72 | 68 | 0.9 | 0.0 | 0.00 | 1.11 | 0.00 | 100 | |
| 20260906080255 | 72 | 37 | 0.9 | 0.0 | 0.00 | 1.11 | 0.00 | 100 | |
| 20260906075729 | 72 | 15 | 0.9 | 0.0 | 0.00 | 1.11 | 0.00 | 100 | |
| 20260906075255 | 72 | 345 | 1.7 | 0.0 | 0.00 | 1.11 | 0.00 | 100 | |
| 20260906074727 | 72 | 351 | 0.9 | 0.0 | 0.00 | 1.11 | 0.00 | 100 | |
| 20260906074255 | 72 | 286 | 1.7 | 0.0 | 0.00 | 1.11 | 0.00 | 100 | |
| 20260906073755 | 72 | 329 | 0.9 | 0.0 | 0.00 | 1.11 | 0.00 | 100 | |
| 20260906073727 | 72 | 283 | 1.7 | 0.0 | 0.00 | 1.11 | 0.00 | 100 | |
| 20260906073255 | 72 | 227 | 0.9 | 0.0 | 0.00 | 1.11 | 0.00 | 100 | |
| 20260906072726 | 72 | 45 | 0.9 | 0.0 | 0.00 | 1.11 | 0.00 | 100 | |
| 20260906072255 | 72 | 45 | 0.9 | 0.0 | 0.00 | 1.11 | 0.00 | 100 | |
| 20260906071727 | 72 | 57 | 0.9 | 0.0 | 0.00 | 1.11 | 0.00 | 100 | |
| 20260906071255 | 72 | 54 | 1.7 | 0.0 | 0.00 | 1.11 | 0.00 | 100 | |
| 20260906065727 | 72 | 188 | 0.9 | 0.0 | 0.00 | 1.11 | 0.00 | 100 | |
| 20260906065255 | 72 | 188 | 0.9 | 0.0 | 0.00 | 1.11 | 0.00 | 100 | |
| 20260906064755 | 72 | 202 | 0.9 | 0.0 | 0.00 | 1.11 | 0.00 | 100 | |
| 20260906064726 | 72 | 206 | 0.9 | 0.0 | 0.00 | 1.11 | 0.00 | 100 | |
| 20260906064255 | 72 | 209 | 0.9 | 0.0 | 0.00 | 1.11 | 0.00 | 100 | |
| 20260906063755 | 72 | 214 | 0.9 | 0.0 | 0.00 | 1.11 | 0.00 | 100 | |
| 20260906063726 | 72 | 236 | 1.7 | 0.0 | 0.00 | 1.11 | 0.00 | 100 | |
| 20260906063255 | 72 | 250 | 0.9 | 0.0 | 0.00 | 1.11 | 0.00 | 100 | |
| 20260906062726 | 72 | 268 | 0.9 | 0.0 | 0.00 | 1.11 | 0.00 | 100 | |
| 20260906062255 | 72 | 246 | 0.9 | 0.0 | 0.00 | 1.11 | 0.00 | 100 | |
| 20260906061255 | 72 | 241 | 1.7 | 0.0 | 0.00 | 1.11 | 0.00 | 100 | |
| 20260906060755 | 72 | 211 | 0.9 | 0.0 | 0.00 | 1.11 | 0.00 | 100 | |
| 20260906060727 | 73 | 225 | 0.9 | 0.0 | 0.00 | 1.11 | 0.00 | 100 | |
| 20260906060255 | 72 | 168 | 0.9 | 0.0 | 0.00 | 1.11 | 0.00 | 100 | |
| 20260906055726 | 73 | 257 | 0.9 | 0.0 | 0.00 | 1.11 | 0.00 | 100 | |
| 20260906055255 | 72 | 241 | 1.7 | 0.0 | 0.00 | 1.11 | 0.00 | 100 | |
| 20260906054755 | 72 | 276 | 0.9 | 0.0 | 0.00 | 1.11 | 0.00 | 100 | |
| 20260906054729 | 72 | 250 | 0.9 | 0.0 | 0.00 | 1.11 | 0.00 | 100 | |
| 20260906054255 | 72 | 234 | 0.9 | 0.0 | 0.00 | 1.11 | 0.00 | 100 | |
| 20260906053726 | 72 | 341 | 0.9 | 0.0 | 0.00 | 1.11 | 0.00 | 100 | |
| 20260906053255 | 72 | 42 | 0.9 | 0.0 | 0.00 | 1.11 | 0.00 | 100 | |
| 20260906052728 | 72 | 334 | 1.7 | 0.0 | 0.00 | 1.11 | 0.00 | 100 | |
| 20260906052255 | 72 | 161 | 0.9 | 0.0 | 0.00 | 1.11 | 0.00 | 100 | |
| 20260906051726 | 72 | 141 | 0.9 | 0.0 | 0.00 | 1.11 | 0.00 | 100 | |
| 20260906051255 | 72 | 153 | 0.9 | 0.0 | 0.00 | 1.11 | 0.00 | 100 | |
| 20260906050727 | 72 | 87 | 0.9 | 0.0 | 0.00 | 1.11 | 0.00 | 100 | |
| 20260906050255 | 72 | 33 | 0.9 | 0.0 | 0.00 | 1.11 | 0.00 | 100 | |
| 20260906045755 | 72 | 46 | 1.7 | 0.0 | 0.00 | 1.11 | 0.00 | 100 | |
| 20260906045726 | 72 | 56 | 1.7 | 0.0 | 0.00 | 1.11 | 0.00 | 100 | |
| 20260906045255 | 73 | 68 | 0.9 | 0.0 | 0.00 | 1.11 | 0.00 | 100 | |
| 20260906044755 | 73 | 72 | 1.7 | 0.0 | 0.00 | 1.11 | 0.00 | 100 | |
| 20260906044726 | 73 | 63 | 0.9 | 0.0 | 0.00 | 1.11 | 0.00 | 100 | |
| 20260906044255 | 73 | 342 | 1.7 | 0.0 | 0.00 | 1.11 | 0.00 | 100 | |
| 20260906043755 | 73 | 346 | 4.3 | 0.0 | 0.00 | 1.11 | 0.00 | 100 | |
| 20260906043727 | 73 | 349 | 3.5 | 0.0 | 0.00 | 1.11 | 0.00 | 100 | |
| 20260906043255 | 73 | 9 | 2.6 | 0.0 | 0.00 | 1.11 | 0.00 | 100 | |
| 20260906042755 | 72 | 344 | 1.7 | 0.0 | 0.00 | 1.11 | 0.00 | 100 | |
| 20260906042727 | 72 | 345 | 1.7 | 0.0 | 0.00 | 1.11 | 0.00 | 100 | |
| 20260906042255 | 72 | 9 | 1.7 | 0.0 | 0.00 | 1.11 | 0.00 | 100 | |
| 20260906041726 | 72 | 49 | 0.9 | 0.0 | 0.00 | 1.11 | 0.00 | 100 | |
| 20260906041255 | 72 | 46 | 1.7 | 0.0 | 0.00 | 1.11 | 0.00 | 100 | |
| 20260906040755 | 72 | 65 | 0.9 | 0.0 | 0.00 | 1.11 | 0.00 | 100 | |
| 20260906040726 | 72 | 69 | 0.9 | 0.0 | 0.00 | 1.11 | 0.00 | 100 | |
| 20260906035733 | 72 | 346 | 0.9 | 0.0 | 0.00 | 1.11 | 1.11 | 100 | |
| 20260906035256 | 72 | 346 | 0.9 | 0.0 | 0.00 | 1.11 | 1.11 | 100 | |
| 20260906034756 | 72 | 349 | 1.7 | 0.0 | 0.00 | 1.11 | 1.11 | 100 | |
| 20260906034727 | 72 | 336 | 1.7 | 0.0 | 0.00 | 1.11 | 1.11 | 100 | |
| 20260906034256 | 72 | 325 | 2.6 | 0.0 | 0.00 | 1.11 | 1.11 | 100 | |
| 20260906033756 | 72 | 305 | 5.2 | 0.0 | 0.00 | 1.11 | 1.11 | 100 | |
| 20260906033727 | 72 | 286 | 3.5 | 0.0 | 0.00 | 1.11 | 1.11 | 100 | |
| 20260906033256 | 72 | 279 | 2.6 | 0.0 | 0.00 | 1.11 | 1.11 | 100 | |
| 20260906032756 | 72 | 292 | 1.7 | 0.0 | 0.00 | 1.11 | 1.11 | 100 | |
| 20260906032727 | 72 | 317 | 2.6 | 0.0 | 0.00 | 1.11 | 1.11 | 100 | |
| 20260906032256 | 72 | 311 | 0.9 | 0.0 | 0.00 | 1.11 | 1.11 | 100 | |
| 20260906031756 | 72 | 291 | 0.9 | 0.0 | 0.00 | 1.11 | 1.11 | 100 | |
| 20260906031256 | 72 | 299 | 0.9 | 0.0 | 0.00 | 1.11 | 1.11 | 100 | |
| 20260906030756 | 73 | 264 | 0.9 | 0.0 | 0.00 | 1.11 | 1.11 | 100 | |
| 20260906030727 | 73 | 273 | 3.5 | 0.0 | 0.00 | 1.11 | 1.11 | 100 | |
| 20260906030256 | 72 | 241 | 0.9 | 0.0 | 0.00 | 1.11 | 1.11 | 100 | |
| 20260906025756 | 72 | 295 | 0.9 | 0.0 | 0.00 | 1.11 | 1.11 | 100 | |
| 20260906025727 | 72 | 328 | 0.9 | 0.0 | 0.00 | 1.11 | 1.11 | 100 | |
| 20260906025256 | 72 | 319 | 1.7 | 0.0 | 0.00 | 1.11 | 1.11 | 100 | |
| 20260906024756 | 72 | 267 | 0.9 | 0.0 | 0.00 | 1.11 | 1.11 | 100 | |
| 20260906024727 | 72 | 245 | 0.9 | 0.0 | 0.00 | 1.11 | 1.11 | 100 | |
| 20260906024256 | 72 | 236 | 1.7 | 0.0 | 0.00 | 1.11 | 1.11 | 100 | |
| 20260906023756 | 72 | 206 | 0.9 | 0.0 | 0.00 | 1.11 | 1.11 | 100 | |
| 20260906023727 | 72 | 198 | 0.9 | 0.0 | 0.00 | 1.11 | 1.11 | 100 | |
| 20260906023256 | 72 | 117 | 0.9 | 0.0 | 0.00 | 1.11 | 1.11 | 100 | |
| 20260906022727 | 72 | 72 | 0.9 | 0.0 | 0.00 | 1.11 | 1.11 | 100 | |
| 20260906022256 | 72 | 67 | 3.5 | 0.0 | 0.00 | 1.11 | 1.11 | 100 | |
| 20260906021756 | 72 | 38 | 3.5 | 0.0 | 0.00 | 1.11 | 1.11 | 100 | |
| 20260906021727 | 72 | 29 | 4.3 | 0.0 | 0.00 | 1.11 | 1.11 | 100 | |
| 20260906021256 | 72 | 59 | 3.5 | 0.0 | 0.00 | 1.11 | 1.11 | 100 | |
| 20260906020756 | 72 | 64 | 3.5 | 0.0 | 0.00 | 1.11 | 1.11 | 100 | |
| 20260906020727 | 72 | 61 | 4.3 | 0.0 | 0.00 | 1.11 | 1.11 | 100 | |
| 20260906020256 | 71 | 65 | 4.3 | 0.0 | 0.01 | 1.11 | 1.11 | 100 | |
| 20260906015756 | 71 | 50 | 1.7 | 0.0 | 0.16 | 1.11 | 1.11 | 100 | |
| 20260906015728 | 71 | 67 | 2.6 | 0.0 | 0.16 | 1.11 | 1.11 | 100 | |
| 20260906015256 | 71 | 71 | 3.5 | 0.0 | 0.45 | 1.11 | 1.11 | 100 | |
| 20260906014756 | 71 | 103 | 7.0 | 0.0 | 0.88 | 1.11 | 1.11 | 100 | |
| 20260906014256 | 70 | 123 | 2.6 | 0.0 | 1.10 | 1.11 | 1.11 | 100 | |
| 20260906013756 | 70 | 127 | 3.5 | 0.0 | 1.11 | 1.11 | 1.11 | 100 | |
| 20260906013727 | 70 | 119 | 3.5 | 0.0 | 1.11 | 1.11 | 1.11 | 100 | |
| 20260906013256 | 70 | 145 | 0.9 | 0.0 | 1.11 | 1.11 | 1.11 | 100 | |
| 20260906012756 | 70 | 68 | 1.7 | 0.0 | 1.11 | 1.11 | 1.11 | 100 | |
| 20260906012727 | 70 | 79 | 2.6 | 0.0 | 1.11 | 1.11 | 1.11 | 100 | |
| 20260906012255 | 70 | 60 | 0.9 | 0.0 | 1.11 | 1.11 | 1.11 | 100 | |
| 20260906011755 | 70 | 223 | 0.9 | 0.0 | 1.11 | 1.11 | 1.11 | 100 | |
| 20260906011726 | 70 | 249 | 1.7 | 0.0 | 1.11 | 1.11 | 1.11 | 100 | |
| 20260906011256 | 71 | 333 | 3.5 | 0.0 | 1.11 | 1.11 | 1.11 | 100 | |
| 20260906010755 | 72 | 232 | 4.3 | 0.0 | 1.11 | 1.11 | 1.11 | 100 | |
| 20260906010727 | 72 | 190 | 3.5 | 0.0 | 1.11 | 1.11 | 1.11 | 100 | |
| 20260906010255 | -14 | 111 | 7.8 | 0.0 | 1.10 | 1.10 | 1.10 | 100 | |
| 20260906005755 | 73 | 248 | 21.7 | 0.0 | 0.95 | 0.95 | 0.95 | 100 | |
| 20260906005727 | 73 | 261 | 21.7 | 0.0 | 0.95 | 0.95 | 0.95 | 100 | |
| 20260906005255 | 74 | 255 | 30.4 | 0.0 | 0.66 | 0.66 | 0.66 | 100 | |
| 20260906004755 | 75 | 10 | 34.8 | 0.0 | 0.23 | 0.23 | 0.23 | 100 | |
| 20260906004728 | 76 | 344 | 9.6 | 0.0 | 0.23 | 0.23 | 0.23 | 100 | |
| 20260906004255 | 77 | 23 | 7.0 | 0.0 | 0.01 | 0.01 | 0.01 | 100 | |
| 20260906003755 | 82 | 40 | 15.6 | 0.0 | 0.00 | 0.00 | 0.00 | 100 | |
| 20260906003255 | 86 | 57 | 7.8 | 0.0 | 0.00 | 0.00 | 0.00 | 100 | |
| 20260906002755 | 86 | 149 | 4.3 | 0.0 | 0.00 | 0.00 | 0.00 | 100 | |
| 20260906002727 | 86 | 145 | 4.3 | 0.0 | 0.00 | 0.00 | 0.00 | 100 | |
| 20260906002255 | 87 | 148 | 8.7 | 0.0 | 0.00 | 0.00 | 0.00 | 100 | |
| 20260906001755 | 87 | 202 | 3.5 | 0.0 | 0.00 | 0.00 | 0.00 | 100 | |
| 20260906001727 | 87 | 182 | 3.5 | 0.0 | 0.00 | 0.00 | 0.00 | 100 | |
| 20260906001255 | 87 | 191 | 1.7 | 0.0 | 0.00 | 0.00 | 0.00 | 100 | |
| 20260906000755 | 88 | 255 | 6.1 | 0.0 | 0.00 | 0.00 | 0.00 | 100 | |
| 20260906000728 | 88 | 250 | 7.0 | 0.0 | 0.00 | 0.00 | 0.00 | 100 | |
| 20260906000256 | 88 | 236 | 6.1 | 0.0 | 0.00 | 0.00 | 0.00 | 100 | |
| 20260905235913 | 89 | 232 | 6.1 | 0.0 | 0.00 | 0.00 | 0.00 | 100 | |
| 20260905235911 | 88 | 210 | 4.3 | 0.0 | 0.00 | 0.00 | 0.00 | 100 | |
| 20260905235905 | 91 | 310 | 2.6 | 0.0 | 0.00 | 0.00 | 0.00 | 100 | |
| 20260905235755 | 88 | 252 | 6.1 | 0.0 | 0.00 | 0.00 | 0.00 | 100 | |
| 20260905235727 | 88 | 288 | 4.3 | 0.0 | 0.00 | 0.00 | 0.00 | 100 | |
| 20260905235255 | 88 | 257 | 8.7 | 0.0 | 0.00 | 0.00 | 0.00 | 100 | |
| 20260905234755 | 88 | 233 | 3.5 | 0.0 | 0.00 | 0.00 | 0.00 | 100 | |
| 20260905234727 | 89 | 260 | 7.0 | 0.0 | 0.00 | 0.00 | 0.00 | 100 | |
| 20260905234255 | 89 | 257 | 6.1 | 0.0 | 0.00 | 0.00 | 0.00 | 100 | |
| 20260905233755 | 89 | 256 | 7.0 | 0.0 | 0.00 | 0.00 | 0.00 | 100 | |
| 20260905233727 | 89 | 259 | 7.0 | 0.0 | 0.00 | 0.00 | 0.00 | 100 | |
| 20260905233255 | 90 | 255 | 6.1 | 0.0 | 0.00 | 0.00 | 0.00 | 100 | |
| 20260905232755 | 90 | 236 | 4.3 | 0.0 | 0.00 | 0.00 | 0.00 | 100 | |
| 20260905232727 | 90 | 263 | 7.0 | 0.0 | 0.00 | 0.00 | 0.00 | 100 | |
| 20260905232255 | 90 | 219 | 4.3 | 0.0 | 0.00 | 0.00 | 0.00 | 100 | |
| 20260905231755 | 90 | 240 | 6.1 | 0.0 | 0.00 | 0.00 | 0.00 | 100 | |
| 20260905231726 | 90 | 261 | 7.8 | 0.0 | 0.00 | 0.00 | 0.00 | 100 | |
| 20260905231255 | 90 | 233 | 6.1 | 0.0 | 0.00 | 0.00 | 0.00 | 100 | |
| 20260905230755 | 91 | 249 | 7.0 | 0.0 | 0.00 | 0.00 | 0.00 | 100 | |
| 20260905230726 | 91 | 196 | 4.3 | 0.0 | 0.00 | 0.00 | 0.00 | 100 | |
| 20260905225755 | 91 | 207 | 9.6 | 0.0 | 0.00 | 0.00 | 0.00 | 100 | |
| 20260905225726 | 91 | 218 | 7.8 | 0.0 | 0.00 | 0.00 | 0.00 | 100 | |
| 20260905225255 | 91 | 199 | 6.1 | 0.0 | 0.00 | 0.00 | 0.00 | 100 | |
| 20260905224755 | 91 | 186 | 8.7 | 0.0 | 0.00 | 0.00 | 0.00 | 100 | |
| 20260905224726 | 91 | 194 | 3.5 | 0.0 | 0.00 | 0.00 | 0.00 | 100 | |
| 20260905224255 | 92 | 223 | 6.1 | 0.0 | 0.00 | 0.00 | 0.00 | 100 | |
| 20260905223755 | 94 | 157 | 12.2 | 0.0 | 0.00 | 0.00 | 0.00 | 100 | |
| 20260905223726 | 94 | 157 | 6.1 | 0.0 | 0.00 | 0.00 | 0.00 | 100 | |
| 20260905223255 | 95 | 65 | 1.7 | 0.0 | 0.00 | 0.00 | 0.00 | 100 | |
| 20260905222755 | 95 | 67 | 3.5 | 0.0 | 0.00 | 0.00 | 0.00 | 100 | |
| 20260905222727 | 95 | 87 | 7.0 | 0.0 | 0.00 | 0.00 | 0.00 | 100 | |
| 20260905222255 | 95 | 19 | 1.7 | 0.0 | 0.00 | 0.00 | 0.00 | 100 | |
| 20260905221755 | 95 | 73 | 4.3 | 0.0 | 0.00 | 0.00 | 0.00 | 100 | |
| 20260905221726 | 95 | 61 | 1.7 | 0.0 | 0.00 | 0.00 | 0.00 | 100 | |
| 20260905221255 | 95 | 59 | 2.6 | 0.0 | 0.00 | 0.00 | 0.00 | 100 | |
| 20260905220755 | 95 | 71 | 1.7 | 0.0 | 0.00 | 0.00 | 0.00 | 100 | |
| 20260905220726 | 95 | 64 | 2.6 | 0.0 | 0.00 | 0.00 | 0.00 | 100 | |
| 20260905220255 | 96 | 90 | 0.9 | 0.0 | 0.00 | 0.00 | 0.00 | 100 | |
| 20260905215755 | 96 | 49 | 3.5 | 0.0 | 0.00 | 0.00 | 0.00 | 100 | |
| 20260905215727 | 96 | 63 | 3.5 | 0.0 | 0.00 | 0.00 | 0.00 | 100 | |
| 20260905215255 | 96 | 54 | 2.6 | 0.0 | 0.00 | 0.00 | 0.00 | 100 | |
| 20260905214755 | 96 | 83 | 3.5 | 0.0 | 0.00 | 0.00 | 0.00 | 100 | |
| 20260905214728 | 96 | 49 | 2.6 | 0.0 | 0.00 | 0.00 | 0.00 | 100 | |
| 20260905214255 | 96 | 37 | 2.6 | 0.0 | 0.00 | 0.00 | 0.00 | 100 | |
| 20260905213755 | 96 | 156 | 1.7 | 0.0 | 0.00 | 0.00 | 0.00 | 100 | |
| 20260905213727 | 96 | 153 | 1.7 | 0.0 | 0.00 | 0.00 | 0.00 | 100 | |
| 20260905213255 | 96 | 117 | 1.7 | 0.0 | 0.00 | 0.00 | 0.00 | 100 | |
| 20260905212755 | 96 | 144 | 2.6 | 0.0 | 0.00 | 0.00 | 0.00 | 100 | |
| 20260905212726 | 96 | 61 | 0.9 | 0.0 | 0.00 | 0.00 | 0.00 | 100 | |
| 20260905212255 | 96 | 114 | 2.6 | 0.0 | 0.00 | 0.00 | 0.00 | 100 | |
| 20260905211755 | 96 | 60 | 1.7 | 0.0 | 0.00 | 0.00 | 0.00 | 100 | |
| 20260905211726 | 96 | 351 | 2.6 | 0.0 | 0.00 | 0.00 | 0.00 | 100 | |
| 20260905211255 | 96 | 64 | 5.2 | 0.0 | 0.00 | 0.00 | 0.00 | 100 | |
| 20260905210755 | 96 | 337 | 7.8 | 0.0 | 0.00 | 0.00 | 0.00 | 100 | |
| 20260905210726 | 96 | 26 | 3.5 | 0.0 | 0.00 | 0.00 | 0.00 | 100 | |
| 20260905210255 | 96 | 61 | 4.3 | 0.0 | 0.00 | 0.00 | 0.00 | 100 | |
| 20260905205755 | 97 | 56 | 5.2 | 0.0 | 0.00 | 0.00 | 0.00 | 100 | |
| 20260905205727 | 97 | 29 | 2.6 | 0.0 | 0.00 | 0.00 | 0.00 | 100 | |
| 20260905205255 | 97 | 38 | 0.9 | 0.0 | 0.00 | 0.00 | 0.00 | 100 | |
| 20260905204755 | 97 | 103 | 1.7 | 0.0 | 0.00 | 0.00 | 0.00 | 100 | |
| 20260905204726 | 97 | 53 | 2.6 | 0.0 | 0.00 | 0.00 | 0.00 | 100 | |
| 20260905204255 | 96 | 182 | 0.9 | 0.0 | 0.00 | 0.00 | 0.00 | 100 | |
| 20260905203755 | 96 | 144 | 1.7 | 0.0 | 0.00 | 0.00 | 0.00 | 100 | |
| 20260905203727 | 96 | 140 | 1.7 | 0.0 | 0.00 | 0.00 | 0.00 | 100 | |
| 20260905203255 | 95 | 115 | 0.9 | 0.0 | 0.00 | 0.00 | 0.00 | 100 | |
| 20260905202755 | 95 | 65 | 3.5 | 0.0 | 0.00 | 0.00 | 0.00 | 100 | |
| 20260905202726 | 95 | 56 | 2.6 | 0.0 | 0.00 | 0.00 | 0.00 | 100 | |
| 20260905202255 | 96 | 68 | 8.7 | 0.0 | 0.00 | 0.00 | 0.00 | 100 | |
| 20260905201755 | 96 | 177 | 3.5 | 0.0 | 0.00 | 0.00 | 0.00 | 100 | |
| 20260905201726 | 96 | 146 | 2.6 | 0.0 | 0.00 | 0.00 | 0.00 | 100 | |
| 20260905201255 | 97 | 159 | 7.8 | 0.0 | 0.00 | 0.00 | 0.00 | 100 | |
| 20260905200755 | 96 | 76 | 0.9 | 0.0 | 0.00 | 0.00 | 0.00 | 100 | |
| 20260905200726 | 96 | 344 | 0.9 | 0.0 | 0.00 | 0.00 | 0.00 | 100 | |
| 20260905200255 | 96 | 148 | 3.5 | 0.0 | 0.00 | 0.00 | 0.00 | 100 | |
| 20260905195755 | 96 | 336 | 1.7 | 0.0 | 0.00 | 0.00 | 0.00 | 100 | |
| 20260905195726 | 96 | 49 | 2.6 | 0.0 | 0.00 | 0.00 | 0.00 | 100 | |
| 20260905195255 | 95 | 40 | 0.9 | 0.0 | 0.00 | 0.00 | 0.00 | 100 | |
| 20260905194755 | 95 | 122 | 1.7 | 0.0 | 0.00 | 0.00 | 0.00 | 100 | |
| 20260905194726 | 95 | 121 | 1.7 | 0.0 | 0.00 | 0.00 | 0.00 | 100 | |
| 20260905194255 | 95 | 106 | 5.2 | 0.0 | 0.00 | 0.00 | 0.00 | 100 | |
| 20260905193755 | 95 | 118 | 5.2 | 0.0 | 0.00 | 0.00 | 0.00 | 100 | |
| 20260905193727 | 95 | 26 | 1.7 | 0.0 | 0.00 | 0.00 | 0.00 | 100 | |
| 20260905193255 | 96 | 64 | 7.0 | 0.0 | 0.00 | 0.00 | 0.00 | 100 | |
| 20260905192755 | 96 | 54 | 1.7 | 0.0 | 0.00 | 0.00 | 0.00 | 100 | |
| 20260905192728 | 96 | 33 | 1.7 | 0.0 | 0.00 | 0.00 | 0.00 | 100 | |
| 20260905192256 | 96 | 94 | 5.2 | 0.0 | 0.00 | 0.00 | 0.00 | 100 | |
| 20260905191727 | 96 | 137 | 3.5 | 0.0 | 0.00 | 0.00 | 0.00 | 100 | |
| 20260905191256 | 95 | 26 | 1.7 | 0.0 | 0.00 | 0.00 | 0.00 | 100 | |
| 20260905190756 | 95 | 73 | 7.0 | 0.0 | 0.00 | 0.00 | 0.00 | 100 | |
| 20260905190727 | 95 | 17 | 2.6 | 0.0 | 0.00 | 0.00 | 0.00 | 100 | |
| 20260905190256 | 95 | 111 | 3.5 | 0.0 | 0.00 | 0.00 | 0.00 | 100 | |
| 20260905185756 | 95 | 87 | 6.1 | 0.0 | 0.00 | 0.00 | 0.00 | 100 | |
| 20260905185727 | 95 | 57 | 3.5 | 0.0 | 0.00 | 0.00 | 0.00 | 100 | |
| 20260905185256 | 95 | 119 | 4.3 | 0.0 | 0.00 | 0.00 | 0.00 | 100 | |
| 20260905184756 | 95 | 88 | 7.0 | 0.0 | 0.00 | 0.00 | 0.00 | 100 | |
| 20260905184727 | 95 | 68 | 8.7 | 0.0 | 0.00 | 0.00 | 0.00 | 100 | |
| 20260905184256 | 94 | 114 | 0.9 | 0.0 | 0.00 | 0.00 | 0.00 | 100 | |
| 20260905183756 | 94 | 71 | 3.5 | 0.0 | 0.00 | 0.00 | 0.00 | 100 | |
| 20260905183727 | 94 | 92 | 5.2 | 0.0 | 0.00 | 0.00 | 0.00 | 100 | |
| 20260905183256 | 94 | 57 | 3.5 | 0.0 | 0.00 | 0.00 | 0.00 | 100 | |
| 20260905182756 | 94 | 328 | 2.6 | 0.0 | 0.00 | 0.00 | 0.00 | 100 | |
| 20260905182727 | 94 | 333 | 5.2 | 0.0 | 0.00 | 0.00 | 0.00 | 100 | |
| 20260905182256 | 94 | 45 | 0.9 | 0.0 | 0.00 | 0.00 | 0.00 | 100 | |
| 20260905181727 | 93 | 95 | 0.9 | 0.0 | 0.00 | 0.00 | 0.00 | 100 | |
| 20260905181256 | 94 | 44 | 4.3 | 0.0 | 0.00 | 0.00 | 0.00 | 100 | |
| 20260905180756 | 94 | 127 | 1.7 | 0.0 | 0.00 | 0.00 | 0.00 | 100 | |
| 20260905180727 | 94 | 184 | 0.9 | 0.0 | 0.00 | 0.00 | 0.00 | 100 | |
| 20260905180256 | 94 | 323 | 3.5 | 0.0 | 0.00 | 0.00 | 0.00 | 100 | |
| 20260905175756 | 94 | 49 | 6.1 | 0.0 | 0.00 | 0.00 | 0.00 | 100 | |
| 20260905175727 | 94 | 33 | 4.3 | 0.0 | 0.00 | 0.00 | 0.00 | 100 | |
| 20260905175256 | 94 | 117 | 0.9 | 0.0 | 0.00 | 0.00 | 0.00 | 100 | |
| 20260905174756 | 93 | 46 | 0.9 | 0.0 | 0.00 | 0.00 | 0.00 | 100 | |
| 20260905174727 | 93 | 41 | 2.6 | 0.0 | 0.00 | 0.00 | 0.00 | 100 | |
| 20260905174256 | 92 | 106 | 1.7 | 0.0 | 0.00 | 0.00 | 0.00 | 100 | |
| 20260905173756 | 92 | 34 | 4.3 | 0.0 | 0.00 | 0.00 | 0.00 | 100 | |
| 20260905173727 | 92 | 19 | 6.1 | 0.0 | 0.00 | 0.00 | 0.00 | 100 | |
| 20260905173256 | 92 | 49 | 5.2 | 0.0 | 0.00 | 0.00 | 0.00 | 100 | |
| 20260905172756 | 92 | 227 | 1.7 | 0.0 | 0.00 | 0.00 | 0.00 | 100 | |
| 20260905172729 | 91 | 255 | 0.9 | 0.0 | 0.00 | 0.00 | 0.00 | 100 | |
| 20260905172256 | 92 | 103 | 2.6 | 0.0 | 0.00 | 0.00 | 0.00 | 100 | |
| 20260905171727 | 92 | 86 | 6.1 | 0.0 | 0.00 | 0.00 | 0.00 | 100 | |
| 20260905171256 | 93 | 44 | 3.5 | 0.0 | 0.00 | 0.00 | 0.00 | 100 | |
| 20260905170756 | 93 | 44 | 2.6 | 0.0 | 0.00 | 0.00 | 0.00 | 100 | |
| 20260905170727 | 93 | 9 | 6.1 | 0.0 | 0.00 | 0.00 | 0.00 | 100 | |
| 20260905170256 | 92 | 294 | 1.7 | 0.0 | 0.00 | 0.00 | 0.00 | 100 | |
| 20260905165756 | 91 | 59 | 3.5 | 0.0 | 0.00 | 0.00 | 0.00 | 100 | |
| 20260905165727 | 91 | 84 | 3.5 | 0.0 | 0.00 | 0.00 | 0.00 | 100 | |
| 20260905165256 | 92 | 71 | 3.5 | 0.0 | 0.00 | 0.00 | 0.00 | 100 | |
| 20260905164755 | 92 | 56 | 2.6 | 0.0 | 0.00 | 0.00 | 0.00 | 100 | |
| 20260905164728 | 92 | 11 | 0.9 | 0.0 | 0.00 | 0.00 | 0.00 | 100 | |
| 20260905164256 | 92 | 65 | 1.7 | 0.0 | 0.00 | 0.00 | 0.00 | 100 | |
| 20260905163755 | 92 | 130 | 1.7 | 0.0 | 0.00 | 0.00 | 0.00 | 100 | |
| 20260905163726 | 92 | 71 | 0.9 | 0.0 | 0.00 | 0.00 | 0.00 | 100 | |
| 20260905163255 | 91 | 86 | 6.1 | 0.0 | 0.00 | 0.00 | 0.00 | 100 | |
| 20260905162755 | 90 | 95 | 5.2 | 0.0 | 0.00 | 0.00 | 0.00 | 100 | |
| 20260905162727 | 90 | 96 | 6.1 | 0.0 | 0.00 | 0.00 | 0.00 | 100 | |
| 20260905162255 | 91 | 67 | 3.5 | 0.0 | 0.00 | 0.00 | 0.00 | 100 | |
| 20260905161755 | 91 | 64 | 7.0 | 0.0 | 0.00 | 0.00 | 0.00 | 100 | |
| 20260905161726 | 91 | 33 | 7.0 | 0.0 | 0.00 | 0.00 | 0.00 | 100 | |
| 20260905161255 | 91 | 18 | 3.5 | 0.0 | 0.00 | 0.00 | 0.00 | 100 | |
| 20260905160755 | 90 | 25 | 2.6 | 0.0 | 0.00 | 0.00 | 0.00 | 100 | |
| 20260905160726 | 90 | 61 | 4.3 | 0.0 | 0.00 | 0.00 | 0.00 | 100 | |
| 20260905160255 | 90 | 27 | 3.5 | 0.0 | 0.00 | 0.00 | 0.00 | 100 | |
| 20260905155755 | 90 | 75 | 1.7 | 0.0 | 0.00 | 0.00 | 0.00 | 100 | |
| 20260905155255 | 91 | 59 | 10.4 | 0.0 | 0.00 | 0.00 | 0.00 | 100 | |
| 20260905154755 | 90 | 36 | 2.6 | 0.0 | 0.00 | 0.00 | 0.00 | 100 | |
| 20260905154728 | 90 | 67 | 1.7 | 0.0 | 0.00 | 0.00 | 0.00 | 100 | |
| 20260905154255 | 90 | 306 | 3.5 | 0.0 | 0.00 | 0.00 | 0.00 | 100 | |
| 20260905153755 | 90 | 49 | 2.6 | 0.0 | 0.00 | 0.00 | 0.00 | 100 | |
| 20260905153728 | 90 | 59 | 7.0 | 0.0 | 0.00 | 0.00 | 0.00 | 100 | |
| 20260905152756 | 90 | 341 | 4.3 | 0.0 | 0.00 | 0.00 | 0.00 | 100 | |
| 20260905152256 | 89 | 333 | 2.6 | 0.0 | 0.00 | 0.00 | 0.00 | 100 | |
| 20260905151756 | 88 | 330 | 2.6 | 0.0 | 0.00 | 0.00 | 0.00 | 100 | |
| 20260905151728 | 89 | 338 | 2.6 | 0.0 | 0.00 | 0.00 | 0.00 | 100 | |
| 20260905151256 | 89 | 340 | 5.2 | 0.0 | 0.00 | 0.00 | 0.00 | 100 | |
| 20260905150756 | 89 | 94 | 0.9 | 0.0 | 0.00 | 0.00 | 0.00 | 100 | |
| 20260905150728 | 89 | 11 | 0.9 | 0.0 | 0.00 | 0.00 | 0.00 | 100 | |
| 20260905150256 | 88 | 329 | 0.9 | 0.0 | 0.00 | 0.00 | 0.00 | 100 | |
| 20260905145756 | 87 | 113 | 0.9 | 0.0 | 0.00 | 0.00 | 0.00 | 100 | |
| 20260905145729 | 87 | 209 | 0.9 | 0.0 | 0.00 | 0.00 | 0.00 | 100 | |
| 20260905145256 | 87 | 341 | 3.5 | 0.0 | 0.00 | 0.00 | 0.00 | 100 | |
| 20260905144756 | 86 | 322 | 4.3 | 0.0 | 0.00 | 0.00 | 0.00 | 100 | |
| 20260905144727 | 86 | 296 | 5.2 | 0.0 | 0.00 | 0.00 | 0.00 | 100 | |
| 20260905144256 | 86 | 13 | 3.5 | 0.0 | 0.00 | 0.00 | 0.00 | 100 | |
| 20260905143756 | 85 | 87 | 0.9 | 0.0 | 0.00 | 0.00 | 0.00 | 100 | |
| 20260905143727 | 85 | 52 | 3.5 | 0.0 | 0.00 | 0.00 | 0.00 | 100 | |
| 20260905143256 | 85 | 341 | 1.7 | 0.0 | 0.00 | 0.00 | 0.00 | 100 | |
| 20260905142756 | 84 | 27 | 1.7 | 0.0 | 0.00 | 0.00 | 0.00 | 100 | |
| 20260905142727 | 84 | 351 | 1.7 | 0.0 | 0.00 | 0.00 | 0.00 | 100 | |
| 20260905142256 | 84 | 9 | 3.5 | 0.0 | 0.00 | 0.00 | 0.00 | 100 | |
| 20260905141756 | 83 | 348 | 3.5 | 0.0 | 0.00 | 0.00 | 0.00 | 100 | |
| 20260905141256 | 83 | 351 | 3.5 | 0.0 | 0.00 | 0.00 | 0.00 | 100 | |
| 20260905140756 | 83 | 329 | 1.7 | 0.0 | 0.00 | 0.00 | 0.00 | 100 | |
| 20260905140728 | 83 | 342 | 2.6 | 0.0 | 0.00 | 0.00 | 0.00 | 100 | |
| 20260905140256 | 83 | 348 | 3.5 | 0.0 | 0.00 | 0.00 | 0.00 | 100 | |
| 20260905135756 | 82 | 310 | 1.7 | 0.0 | 0.00 | 0.00 | 0.00 | 100 | |
| 20260905135728 | 82 | 348 | 2.6 | 0.0 | 0.00 | 0.00 | 0.00 | 100 | |
| 20260905135256 | 82 | 317 | 3.5 | 0.0 | 0.00 | 0.00 | 0.00 | 100 | |
| 20260905134727 | 81 | 340 | 2.6 | 0.0 | 0.00 | 0.00 | 0.00 | 100 | |
| 20260905134256 | 80 | 349 | 0.9 | 0.0 | 0.00 | 0.00 | 0.00 | 100 | |
| 20260905133756 | 80 | 332 | 1.7 | 0.0 | 0.00 | 0.00 | 0.00 | 100 | |
| 20260905133727 | 80 | 9 | 1.7 | 0.0 | 0.00 | 0.00 | 0.00 | 100 | |
| 20260905133256 | 80 | 329 | 3.5 | 0.0 | 0.00 | 0.00 | 0.00 | 100 | |
| 20260905132756 | 79 | 340 | 0.9 | 0.0 | 0.00 | 0.00 | 0.00 | 100 | |
| 20260905132256 | 78 | 340 | 1.7 | 0.0 | 0.00 | 0.00 | 0.00 | 100 | |
| 20260905131813 | 78 | 340 | 2.6 | 0.0 | 0.00 | 0.00 | 0.00 | 100 | |
| 20260905131756 | 78 | 325 | 3.5 | 0.0 | 0.00 | 0.00 | 0.00 | 100 | |
| 20260905131727 | 78 | 340 | 2.6 | 0.0 | 0.00 | 0.00 | 0.00 | 100 | |
| 20260905131256 | 78 | 351 | 3.5 | 0.0 | 0.00 | 0.00 | 0.00 | 100 | |
| 20260905130756 | 78 | 284 | 3.5 | 0.0 | 0.00 | 0.00 | 0.00 | 100 | |
| 20260905130727 | 77 | 309 | 1.7 | 0.0 | 0.00 | 0.00 | 0.00 | 100 | |
| 20260905130256 | 77 | 9 | 1.7 | 0.0 | 0.00 | 0.00 | 0.00 | 100 | |
| 20260905125756 | 77 | 310 | 4.3 | 0.0 | 0.00 | 0.00 | 0.00 | 100 | |
| 20260905125726 | 77 | 342 | 2.6 | 0.0 | 0.00 | 0.00 | 0.00 | 100 | |
| 20260905125255 | 77 | 9 | 0.9 | 0.0 | 0.00 | 0.00 | 0.00 | 100 | |
| 20260905124755 | 76 | 305 | 1.7 | 0.0 | 0.00 | 0.00 | 0.00 | 100 | |
| 20260905124727 | 76 | 340 | 0.9 | 0.0 | 0.00 | 0.00 | 0.00 | 100 | |
| 20260905124255 | 76 | 279 | 0.9 | 0.0 | 0.00 | 0.00 | 0.00 | 100 | |
| 20260905123755 | 76 | 307 | 0.9 | 0.0 | 0.00 | 0.00 | 0.00 | 100 | |
| 20260905123727 | 76 | 321 | 1.7 | 0.0 | 0.00 | 0.00 | 0.00 | 100 | |
| 20260905123255 | 76 | 307 | 1.7 | 0.0 | 0.00 | 0.00 | 0.00 | 100 | |
| 20260905122755 | 75 | 349 | 0.9 | 0.0 | 0.00 | 0.00 | 0.00 | 100 | |
| 20260905122727 | 75 | 311 | 1.7 | 0.0 | 0.00 | 0.00 | 0.00 | 100 | |
| 20260905122255 | 75 | 299 | 0.9 | 0.0 | 0.00 | 0.00 | 0.00 | 100 | |
| 20260905121726 | 75 | 334 | 1.7 | 0.0 | 0.00 | 0.00 | 0.00 | 100 | |
| 20260905121255 | 74 | 330 | 0.9 | 0.0 | 0.00 | 0.00 | 0.00 | 100 | |
| 20260905120755 | 74 | 11 | 1.7 | 0.0 | 0.00 | 0.00 | 0.00 | 100 | |
| 20260905120727 | 74 | 311 | 0.9 | 0.0 | 0.00 | 0.00 | 0.00 | 100 | |
| 20260905120255 | 74 | 344 | 0.9 | 0.0 | 0.00 | 0.00 | 0.00 | 100 | |
| 20260905115755 | 74 | 319 | 2.6 | 0.0 | 0.00 | 0.00 | 0.00 | 100 | |
| 20260905115726 | 74 | 330 | 2.6 | 0.0 | 0.00 | 0.00 | 0.00 | 100 | |
| 20260905115255 | 74 | 294 | 1.7 | 0.0 | 0.00 | 0.00 | 0.00 | 100 | |
| 20260905114755 | 73 | 344 | 1.7 | 0.0 | 0.00 | 0.00 | 0.00 | 100 | |
| 20260905114727 | 73 | 318 | 2.6 | 0.0 | 0.00 | 0.00 | 0.00 | 100 | |
| 20260905114255 | 73 | 252 | 0.9 | 0.0 | 0.00 | 0.00 | 0.00 | 100 | |
| 20260905113755 | 73 | 341 | 0.9 | 0.0 | 0.00 | 0.00 | 0.00 | 100 |